Temp
-11 -12 -12 -13 -13 -12 -12 -12 -12 -12 -13 -12 -12 -12 -12 -13 -13 -13 -13 -13 -13 -13 -13 -13 -12 -12 -12 -12 -12 -12 -12 -12 -12 -12 -12 -12 -12 -12 -12 -12 -12 -13 -13
-11 -11 -12 -12 -12 -12 -12 -12 -12 -12 -12 -13 -12 -12 -13 -13 -13 -13 -13 -13 -13 -13 -13 -13 -13 -13 -13 -12 -12 -12 -12 -12 -12 -12 -12 -12 -12 -12 -12 -12 -13 -13 -13
-11 -11 -11 -12 -12 -12 -12 -12 -12 -12 -13 -12 -12 -12 -12 -13 -13 -13 -13 -13 -13 -13 -14 -13 -13 -13 -13 -13 -13 -13 -13 -13 -13 -13 -12 -12 -13 -13 -13 -13 -13 -13 -13
-10 -10 -11 -12 -11 -11 -12 -12 -11 -12 -12 -12 -13 -12 -12 -12 -12 -13 -13 -13 -13 -13 -13 -13 -14 -14 -13 -13 -13 -13 -14 -13 -13 -13 -13 -13 -13 -13 -13 -14 -13 -13 -13
-10 -11 -11 -11 -11 -11 -11 -11 -11 -12 -11 -11 -12 -12 -12 -12 -12 -12 -12 -13 -13 -13 -13 -13 -13 -13 -13 -14 -14 -14 -13 -13 -13 -14 -13 -13 -14 -14 -14 -14 -14 -14 -14
-10 -10 -10 -10 -10 -11 -11 -12 -12 -12 -12 -12 -12 -12 -12 -12 -12 -12 -12 -12 -13 -13 -13 -12 -13 -13 -13 -13 -13 -14 -13 -14 -14 -14 -13 -14 -14 -14 -14 -15 -15 -15 -15
-9 -9 -10 -11 -11 -11 -11 -12 -12 -12 -12 -12 -12 -12 -13 -12 -13 -13 -13 -12 -13 -13 -13 -13 -13 -13 -13 -13 -13 -13 -13 -13 -14 -14 -14 -14 -15 -14 -15 -15 -16 -15 -15
-9 -10 -10 -10 -11 -11 -11 -11 -12 -12 -12 -12 -12 -12 -12 -13 -12 -13 -13 -13 -13 -12 -13 -13 -14 -14 -14 -14 -14 -14 -14 -14 -14 -14 -15 -15 -14 -15 -15 -16 -15 -15 -15
-10 -10 -10 -10 -11 -11 -11 -11 -11 -12 -12 -12 -12 -13 -13 -13 -13 -12 -13 -13 -13 -13 -13 -14 -14 -13 -14 -14 -14 -15 -14 -14 -15 -16 -16 -16 -16 -16 -16 -16 -16 -16 -16
-10 -10 -10 -10 -11 -12 -12 -12 -12 -12 -12 -12 -12 -13 -13 -12 -13 -13 -14 -14 -13 -13 -14 -14 -14 -14 -15 -15 -15 -15 -14 -15 -14 -16 -16 -15 -16 -16 -17 -17 -17 -17 -16
-11 -10 -11 -11 -11 -12 -12 -12 -12 -12 -13 -13 -13 -13 -14 -14 -14 -14 -14 -14 -15 -15 -15 -15 -16 -16 -15 -15 -15 -15 -15 -14 -14 -14 -14 -14 -14 -15 -16 -16 -17 -16 -17
-11 -11 -11 -11 -11 -12 -12 -12 -11 -12 -13 -13 -13 -13 -13 -14 -13 -14 -15 -15 -15 -15 -16 -16 -16 -15 -16 -16 -16 -15 -16 -16 -15 -16 -16 -16 -16 -16 -16 -17 -17 -16 -17
-11 -11 -12 -12 -12 -12 -13 -13 -13 -12 -13 -14 -14 -13 -13 -13 -14 -14 -15 -16 -15 -16 -16 -16 -16 -16 -16 -17 -17 -18 -18 -17 -17 -17 -17 -17 -17 -17 -17 -17 -17 -17 -17
-11 -12 -12 -12 -12 -12 -12 -12 -12 -13 -13 -12 -14 -14 -15 -14 -14 -16 -16 -16 -16 -17 -17 -17 -17 -17 -17 -17 -17 -17 -17 -17 -17 -17 -17 -17 -17 -17 -17 -18 -18 -19 -18
-12 -12 -12 -12 -12 -12 -13 -13 -13 -14 -14 -14 -14 -15 -15 -15 -15 -16 -17 -17 -17 -17 -17 -17 -17 -17 -17 -17 -17 -17 -18 -18 -18 -18 -18 -18 -18 -19 -19 -19 -20 -19 -19
-12 -12 -13 -13 -13 -14 -14 -14 -15 -15 -15 -15 -16 -16 -16 -17 -17 -17 -18 -18 -18 -18 -18 -18 -18 -18 -18 -18 -18 -18 -19 -19 -19 -19 -20 -20 -21 -21 -21 -21 -21 -22 -21
-13 -13 -13 -14 -15 -15 -15 -15 -16 -16 -17 -17 -16 -17 -17 -17 -18 -18 -18 -18 -18 -18 -18 -19 -19 -19 -20 -20 -20 -21 -21 -22 -22 -22 -22 -23 -23 -22 -23 -22 -22 -22 -22
-14 -14 -15 -16 -16 -16 -16 -16 -16 -16 -17 -17 -17 -17 -18 -18 -18 -19 -19 -19 -19 -19 -19 -19 -19 -20 -20 -22 -22 -22 -23 -23 -23 -23 -23 -23 -23 -23 -24 -23 -23 -25 -25
-15 -15 -16 -17 -17 -18 -17 -17 -18 -17 -17 -17 -18 -18 -18 -18 -19 -20 -20 -19 -19 -19 -19 -20 -20 -20 -21 -22 -22 -22 -23 -23 -23 -24 -24 -24 -25 -26 -26 -26 -26 -26 -25
-16 -16 -17 -17 -18 -19 -18 -18 -19 -19 -18 -19 -18 -19 -20 -20 -20 -21 -20 -20 -20 -20 -20 -20 -20 -21 -21 -21 -22 -22 -23 -24 -24 -25 -25 -26 -26 -26 -26 -26 -26 -26 -26
-17 -17 -18 -18 -18 -18 -18 -19 -19 -18 -19 -19 -20 -22 -21 -21 -22 -20 -20 -20 -21 -21 -20 -20 -20 -20 -21 -22 -22 -23 -24 -25 -25 -26 -26 -26 -26 -27 -26 -26 -26 -27 -26
-17 -17 -18 -19 -18 -20 -19 -19 -19 -19 -19 -19 -21 -21 -21 -22 -21 -21 -21 -22 -22 -22 -22 -21 -21 -22 -22 -23 -23 -24 -25 -26 -26 -27 -27 -27 -27 -27 -27 -27 -27 -27 -28
-20 -19 -19 -18 -20 -20 -20 -20 -19 -19 -20 -19 -21 -23 -22 -23 -22 -22 -22 -22 -23 -22 -22 -22 -22 -22 -23 -24 -25 -26 -26 -27 -27 -27 -27 -27 -27 -27 -27 -27 -27 -27 -27
-20 -20 -20 -20 -20 -20 -21 -20 -20 -20 -20 -20 -24 -24 -23 -23 -22 -23 -23 -23 -22 -22 -22 -23 -23 -23 -24 -24 -26 -27 -27 -28 -28 -28 -28 -27 -27 -27 -27 -27 -27 -27 -27
-20 -21 -20 -20 -20 -20 -20 -20 -20 -20 -20 -24 -23 -23 -23 -23 -23 -23 -24 -23 -23 -22 -23 -23 -23 -24 -25 -25 -26 -28 -29 -29 -28 -28 -28 -27 -27 -27 -27 -27 -27 -27 -27
-21 -22 -20 -21 -21 -21 -20 -21 -21 -21 -21 -22 -23 -24 -24 -23 -23 -24 -24 -24 -23 -23 -23 -23 -24 -24 -25 -26 -28 -29 -29 -28 -28 -28 -28 -28 -28 -27 -27 -27 -28 -28 -27
Height
5842 5843 5843 5842 5842 5841 5840 5839 5838 5837 5836 5836 5836 5835 5836 5836 5834 5832 5831 5830 5830 5830 5830 5829 5829 5829 5829 5828 5828 5827 5827 5827 5826 5826 5826 5826 5826 5826 5826 5826 5826 5826 5825
5839 5840 5839 5839 5838 5836 5835 5834 5832 5832 5831 5831 5830 5831 5830 5830 5829 5828 5825 5824 5824 5825 5823 5822 5821 5820 5820 5820 5820 5819 5818 5818 5818 5818 5818 5818 5818 5819 5819 5819 5818 5819 5819
5833 5837 5835 5834 5833 5833 5831 5830 5828 5828 5826 5825 5824 5824 5823 5823 5822 5821 5820 5819 5818 5818 5816 5814 5814 5812 5812 5812 5811 5810 5810 5809 5809 5810 5809 5809 5809 5809 5810 5810 5811 5811 5811
5829 5831 5831 5830 5829 5829 5826 5826 5824 5822 5820 5818 5819 5818 5816 5816 5817 5815 5813 5811 5810 5808 5808 5807 5806 5803 5802 5802 5801 5801 5800 5800 5800 5799 5799 5798 5799 5799 5800 5800 5800 5800 5799
5826 5826 5827 5827 5825 5824 5823 5821 5819 5815 5814 5812 5811 5809 5808 5806 5807 5806 5805 5805 5802 5799 5798 5797 5794 5794 5789 5787 5788 5789 5789 5788 5787 5787 5786 5787 5787 5787 5788 5789 5789 5788 5788
5821 5821 5821 5820 5819 5818 5818 5815 5813 5812 5810 5807 5804 5800 5798 5797 5797 5797 5794 5792 5791 5790 5788 5787 5783 5781 5779 5777 5777 5777 5776 5776 5775 5774 5773 5773 5774 5774 5775 5774 5775 5776 5776
5815 5815 5815 5814 5813 5812 5810 5808 5807 5805 5802 5799 5796 5794 5791 5791 5787 5787 5786 5782 5780 5778 5775 5774 5771 5768 5767 5766 5765 5766 5764 5762 5760 5759 5759 5760 5761 5760 5759 5760 5762 5763 5762
5810 5808 5808 5807 5806 5804 5803 5800 5797 5795 5793 5791 5788 5784 5780 5781 5780 5774 5773 5769 5770 5767 5765 5760 5759 5757 5755 5754 5751 5750 5749 5749 5748 5748 5747 5748 5747 5747 5749 5749 5749 5748 5747
5804 5802 5800 5799 5797 5796 5795 5795 5793 5789 5785 5781 5778 5776 5771 5769 5768 5764 5759 5760 5759 5755 5751 5748 5747 5745 5743 5740 5738 5737 5735 5734 5732 5732 5733 5733 5732 5732 5733 5732 5731 5732 5733
5798 5797 5795 5792 5790 5789 5786 5783 5781 5777 5774 5770 5767 5768 5763 5758 5757 5754 5749 5748 5747 5744 5739 5737 5733 5732 5730 5727 5728 5725 5721 5719 5718 5716 5715 5716 5715 5715 5715 5716 5715 5715 5717
5789 5787 5785 5782 5780 5778 5775 5772 5768 5765 5760 5757 5756 5755 5753 5750 5744 5744 5738 5735 5732 5729 5725 5723 5721 5720 5718 5717 5714 5711 5708 5706 5704 5700 5700 5700 5700 5699 5698 5698 5699 5701 5701
5781 5779 5778 5775 5772 5768 5765 5761 5756 5751 5748 5746 5743 5741 5739 5736 5730 5725 5722 5724 5717 5715 5713 5712 5709 5707 5703 5700 5698 5697 5695 5692 5691 5690 5688 5686 5688 5687 5685 5683 5683 5683 5684
5768 5766 5765 5762 5758 5755 5750 5749 5744 5728 5736 5734 5727 5727 5725 5721 5718 5711 5709 5707 5704 5703 5703 5701 5698 5695 5693 5690 5688 5686 5684 5684 5683 5680 5677 5675 5675 5674 5672 5670 5670 5668 5667
5754 5752 5748 5746 5744 5739 5736 5733 5732 5729 5723 5717 5712 5711 5707 5706 5699 5697 5694 5694 5691 5694 5693 5691 5688 5686 5684 5682 5680 5678 5677 5674 5671 5669 5666 5664 5664 5660 5657 5656 5655 5655 5653
5742 5738 5734 5732 5727 5724 5722 5719 5715 5710 5708 5705 5701 5700 5694 5692 5690 5688 5686 5682 5682 5685 5685 5683 5681 5678 5675 5674 5670 5669 5665 5662 5660 5657 5653 5651 5650 5644 5643 5641 5639 5638 5637
5728 5724 5720 5715 5712 5708 5706 5703 5702 5699 5696 5693 5690 5688 5683 5679 5678 5677 5675 5675 5675 5675 5673 5672 5670 5668 5665 5663 5661 5657 5654 5652 5648 5645 5641 5637 5633 5629 5626 5624 5624 5622 5621
5709 5706 5702 5697 5695 5693 5690 5687 5683 5681 5678 5677 5677 5673 5671 5669 5668 5667 5666 5667 5666 5666 5666 5663 5660 5657 5654 5653 5649 5647 5643 5640 5636 5631 5628 5623 5619 5615 5611 5608 5606 5604 5606
5692 5688 5684 5681 5679 5677 5674 5672 5669 5667 5665 5663 5661 5660 5660 5659 5658 5659 5657 5658 5657 5655 5653 5650 5648 5646 5646 5641 5638 5634 5630 5625 5622 5618 5614 5610 5607 5601 5597 5594 5590 5590 5588
5674 5671 5667 5664 5662 5660 5658 5654 5652 5651 5649 5645 5644 5645 5646 5646 5648 5646 5647 5646 5645 5642 5641 5640 5638 5635 5633 5627 5625 5622 5617 5612 5608 5603 5599 5594 5589 5582 5579 5578 5576 5575 5573
5658 5655 5650 5648 5646 5644 5641 5637 5634 5633 5632 5631 5629 5629 5630 5633 5635 5636 5633 5635 5632 5632 5632 5630 5627 5625 5620 5615 5611 5606 5599 5594 5590 5586 5582 5577 5571 5568 5565 5562 5560 5559 5558
5638 5636 5634 5632 5630 5626 5623 5622 5618 5617 5616 5617 5616 5616 5618 5620 5623 5625 5624 5624 5623 5620 5620 5619 5616 5612 5607 5601 5596 5591 5585 5580 5576 5571 5566 5562 5556 5551 5549 5546 5545 5544 5545
5620 5619 5618 5614 5612 5608 5609 5610 5605 5601 5601 5602 5602 5603 5607 5613 5613 5615 5615 5615 5614 5611 5610 5607 5603 5599 5595 5589 5582 5577 5570 5563 5560 5555 5551 5548 5543 5537 5535 5532 5531 5532 5534
5602 5600 5602 5603 5595 5596 5597 5595 5593 5592 5591 5589 5592 5595 5599 5602 5602 5604 5605 5605 5603 5602 5598 5595 5591 5586 5581 5574 5566 5560 5554 5549 5544 5541 5537 5535 5530 5525 5524 5523 5523 5525 5527
5586 5585 5584 5584 5579 5582 5583 5582 5582 5580 5580 5580 5584 5586 5587 5591 5594 5595 5596 5597 5596 5593 5589 5586 5581 5573 5564 5557 5550 5543 5538 5533 5532 5530 5527 5525 5521 5519 5519 5519 5519 5520 5522
5565 5568 5567 5566 5568 5569 5570 5572 5571 5570 5569 5570 5573 5577 5580 5582 5584 5585 5586 5587 5586 5582 5579 5575 5567 5558 5549 5541 5533 5528 5526 5525 5524 5522 5521 5518 5516 5515 5515 5515 5516 5517 5518
5543 5547 5552 5551 5553 5554 5556 5558 5559 5560 5561 5561 5564 5569 5572 5573 5574 5575 5576 5576 5576 5574 5570 5563 5554 5545 5536 5527 5522 5521 5520 5520 5519 5518 5517 5516 5515 5514 5513 5515 5515 5516 5517
Wind_Speed
23 21 19 18 19 20 19 18 17 17 18 20 20 20 21 22 23 27 29 29 30 29 30 31 32 33 34 36 37 38 39 39 40 38 37 37 37 35 34 33 32 32 32
26 24 24 23 23 26 24 21 21 21 22 23 23 22 23 25 27 30 31 31 31 31 33 34 35 36 37 38 38 40 41 42 43 43 43 41 42 41 40 39 38 36 37
20 28 22 24 25 28 28 27 28 29 30 28 29 25 26 28 28 30 28 26 29 30 37 36 38 40 39 40 41 42 42 42 44 45 45 45 45 45 45 44 43 42 41
23 22 22 24 28 28 32 32 31 35 36 35 42 40 33 32 30 31 32 31 30 27 29 31 43 45 44 42 45 45 44 44 45 46 47 47 49 49 48 47 47 47 47
24 22 23 25 27 27 26 30 32 33 36 38 41 38 40 38 39 37 37 37 35 35 37 40 35 41 51 49 46 46 47 49 51 51 50 51 50 50 48 50 52 51 52
25 24 24 26 28 29 28 33 33 35 35 40 44 44 44 45 47 44 42 43 43 42 42 43 46 37 44 53 52 52 50 53 54 54 55 56 54 53 53 53 53 53 54
25 26 27 28 29 30 31 31 33 35 40 42 45 46 46 47 54 43 42 44 48 48 50 50 46 44 46 44 42 44 48 57 63 60 60 59 61 61 66 63 58 55 56
27 29 29 30 31 33 34 38 39 40 42 45 47 47 50 48 44 53 50 48 54 60 55 45 48 50 49 51 48 49 51 54 57 61 61 61 63 64 56 57 62 65 67
30 33 36 37 36 37 40 41 43 45 48 50 49 50 45 61 50 53 45 52 52 49 54 53 54 57 51 50 49 52 55 55 47 45 55 56 53 53 55 54 57 54 55
34 36 40 43 42 43 48 49 49 51 51 54 49 52 52 48 57 52 64 62 57 56 59 54 46 56 39 45 43 42 45 45 49 48 54 54 55 59 60 63 59 56 59
39 41 40 43 47 51 50 53 54 56 57 56 55 56 46 60 59 55 64 60 58 57 47 52 41 37 36 37 41 42 43 47 46 46 47 47 48 46 49 48 63 63 62
39 43 44 45 53 55 52 52 58 61 58 58 58 60 58 59 62 51 60 55 48 44 49 46 40 39 36 37 39 44 44 46 48 47 45 43 44 46 45 45 47 52 58
41 45 48 50 52 59 61 57 57 54 60 62 62 59 61 62 63 69 48 53 56 43 38 30 30 30 35 39 42 43 43 45 46 47 47 47 48 50 52 52 52 50 51
45 47 50 53 54 58 59 58 65 59 65 57 55 61 55 60 53 53 52 50 35 28 28 31 33 37 41 42 44 45 47 50 52 54 54 53 53 54 58 58 57 55 55
52 60 53 52 56 57 58 62 62 62 63 65 71 60 54 65 69 52 39 29 27 31 34 35 39 42 42 44 45 47 50 53 56 57 58 59 61 63 65 65 62 62 62
62 58 57 57 59 57 57 60 57 58 61 62 61 56 50 53 51 41 29 30 34 36 38 40 39 41 41 41 45 46 47 50 54 59 63 67 66 69 69 71 65 61 62
59 56 58 62 59 58 59 59 56 53 51 51 52 50 54 54 48 36 32 32 31 32 34 34 33 32 34 36 38 41 45 50 55 60 60 60 61 62 65 68 70 74 66
56 58 62 62 57 58 61 59 58 61 57 54 55 60 53 50 46 35 31 34 36 33 28 28 33 35 41 39 43 47 51 53 55 57 59 60 64 64 62 65 66 52 49
63 64 66 63 59 62 61 61 60 59 58 55 57 58 49 45 45 39 37 37 33 29 28 28 31 36 42 42 48 52 55 57 59 60 62 63 58 56 56 54 50 47 46
63 68 71 66 62 63 65 65 61 56 53 53 55 46 38 39 44 38 34 32 30 31 31 33 38 41 47 49 54 57 59 61 59 59 62 55 53 55 54 54 53 49 41
66 65 65 65 63 64 55 45 48 54 48 54 46 38 44 42 34 34 29 28 28 27 31 36 38 43 50 54 56 60 62 61 60 58 54 51 53 55 55 52 46 39 41
66 63 66 58 55 28 33 43 43 47 57 51 46 44 37 32 29 32 29 30 32 30 35 36 39 43 50 54 58 62 63 62 59 55 52 51 53 52 48 42 38 35 30
58 47 55 51 36 38 39 42 41 43 55 56 46 30 32 35 33 28 33 35 31 33 34 39 42 47 53 59 63 61 60 59 55 50 47 47 45 39 28 23 19 21 24
68 60 59 55 61 60 43 45 46 47 47 49 34 44 34 32 30 30 32 31 35 36 38 42 47 53 59 60 58 57 52 43 37 37 38 35 25 19 21 21 21 20 18
71 67 64 59 60 65 58 53 41 45 48 42 45 33 32 32 30 33 30 34 37 38 40 45 51 56 56 58 52 40 30 28 28 29 26 18 13 11 11 12 12 13 16
82 70 58 57 57 61 59 58 52 43 45 42 37 35 35 36 32 32 33 35 37 38 41 46 51 51 52 46 33 23 21 21 21 18 15 12 10 7 8 11 13 17 16
Wind_Direction
291 292 297 299 306 302 295 294 292 289 284 282 280 279 280 281 278 278 275 273 271 270 270 272 274 270 267 264 262 262 260 260 262 263 263 264 264 265 268 271 271 273 275
277 297 286 289 297 300 297 296 296 296 296 292 290 286 280 277 277 272 273 274 274 274 272 270 268 268 267 267 266 263 262 261 262 263 264 263 263 264 265 267 268 268 271
276 283 295 293 286 292 303 305 305 306 301 301 301 294 295 292 293 288 283 298 290 294 269 267 271 269 267 267 266 265 265 264 264 264 264 264 263 264 265 265 267 269 268
295 297 298 297 292 291 293 298 297 292 294 299 306 297 298 298 291 283 284 286 282 282 283 288 269 266 269 268 266 266 265 265 265 264 263 263 265 265 265 266 266 266 265
295 296 295 293 291 291 296 294 290 290 289 291 309 293 294 297 298 290 285 286 281 280 280 288 293 287 267 261 264 264 263 262 263 262 263 264 265 265 267 267 267 267 268
289 289 290 290 290 290 287 283 288 290 292 294 292 294 299 294 293 289 290 291 291 287 289 286 284 279 297 278 266 262 261 262 262 260 260 260 263 263 264 263 265 266 266
291 293 289 287 288 290 290 288 287 290 287 288 291 291 291 290 288 277 289 282 289 290 290 281 286 285 287 278 279 278 280 275 264 258 259 259 257 261 260 257 259 263 263
293 296 295 292 291 290 293 295 292 288 285 287 288 291 293 293 299 277 296 296 295 288 280 279 293 285 281 283 277 273 274 277 275 272 276 279 273 273 275 278 271 266 264
296 299 297 296 296 296 295 289 283 284 285 286 290 292 294 285 301 282 285 291 294 283 278 286 288 293 277 277 274 282 278 274 271 278 273 272 271 272 271 273 271 269 269
284 291 293 292 296 296 298 293 292 289 288 288 290 290 293 282 293 291 286 291 286 287 286 281 291 278 284 302 293 291 281 282 279 273 275 279 275 266 268 272 266 268 269
284 289 293 296 297 298 293 291 290 287 283 284 284 289 287 283 288 281 283 282 288 287 285 278 301 303 296 296 291 282 278 275 276 277 276 277 280 283 276 275 269 266 265
288 288 293 295 295 289 288 289 289 282 282 283 286 285 284 286 295 277 292 286 280 286 299 303 295 291 287 288 281 274 272 273 273 273 269 272 278 276 276 271 267 268 268
292 281 291 290 293 284 286 281 281 280 287 282 276 283 285 283 282 283 282 289 298 304 298 289 276 272 268 268 269 268 272 274 275 274 272 272 273 273 273 271 271 264 268
283 289 291 292 291 288 284 278 285 277 282 275 281 283 284 281 271 281 301 301 306 293 288 287 274 272 266 263 268 275 274 273 273 273 276 274 275 275 272 270 271 269 266
304 305 296 285 285 281 278 279 278 277 276 273 279 279 274 275 278 295 301 289 276 276 281 280 272 269 267 268 269 270 271 272 273 275 273 273 273 273 272 272 269 267 266
312 305 297 284 280 277 277 279 279 277 275 277 275 277 273 284 281 287 283 278 272 271 277 273 267 268 269 275 275 277 278 279 276 276 274 274 277 276 277 275 275 276 274
302 291 280 276 276 272 275 272 271 272 280 282 280 275 279 283 281 281 274 271 270 276 277 278 281 281 284 285 286 286 283 279 279 278 283 286 288 287 287 286 285 281 270
290 283 277 275 273 271 270 267 273 279 282 280 276 278 278 281 281 269 271 274 276 274 285 294 294 292 291 287 290 290 287 285 284 284 284 286 290 289 286 280 279 279 277
280 279 274 274 272 275 266 271 273 277 280 275 270 271 272 274 273 264 267 271 264 276 288 297 303 302 295 294 293 290 290 288 289 291 296 300 294 281 278 278 277 274 269
277 275 275 273 273 275 277 277 266 278 277 282 263 260 257 254 263 259 257 257 275 284 284 294 300 299 301 300 300 299 296 296 297 300 300 293 285 283 281 281 280 280 267
273 275 277 275 277 280 273 285 283 280 280 270 246 244 246 256 250 247 255 268 272 285 293 293 299 301 302 302 300 297 296 297 297 296 294 289 287 286 284 284 280 277 268
275 276 279 270 272 281 291 285 304 299 269 252 241 240 250 246 244 261 259 267 279 279 285 293 299 302 301 296 294 296 297 295 295 294 291 289 288 288 287 283 275 269 271
274 264 266 268 263 289 282 291 296 294 284 256 246 238 237 246 251 254 265 271 282 281 290 298 299 300 298 300 301 296 296 295 294 292 291 291 290 288 283 279 274 273 267
271 270 271 274 286 293 281 284 284 289 276 258 233 235 239 245 252 259 271 277 283 291 297 298 300 305 305 302 299 297 294 294 291 288 293 292 287 285 282 283 283 269 264
269 274 271 274 279 283 282 283 286 288 274 237 239 239 238 247 250 261 268 275 281 290 294 299 306 306 305 304 304 299 291 289 290 294 294 290 293 292 285 283 277 283 276
282 287 266 273 273 274 276 279 274 288 288 254 235 238 245 247 253 256 263 276 283 290 297 304 308 308 307 309 308 297 290 291 294 294 290 288 287 286 293 299 286 265 255